| time (UTC) | temp F | wind direction | speed MPH | gust MPH | rain 1hr in | rain 24hr in | rain mn in | humidity % | barometer mb |
| 20260906143618 | 75 | 86 | 4.0 | 9.0 | 0.00 | 0.00 | 0.00 | 88 | 1013.9 |
| 20260906142617 | 75 | 75 | 4.0 | 10.0 | 0.00 | 0.00 | 0.00 | 88 | 1013.9 |
| 20260906141616 | 75 | 87 | 8.0 | 12.0 | 0.00 | 0.00 | 0.00 | 89 | 1013.9 |
| 20260906140545 | 75 | 77 | 2.0 | 10.0 | 0.00 | 0.00 | 0.00 | 91 | 1013.9 |
| 20260906135512 | 74 | 64 | 5.0 | 10.0 | 0.00 | 0.00 | 0.00 | 92 | 1013.5 |
| 20260906134440 | 73 | 68 | 4.0 | 7.0 | 0.00 | 0.00 | 0.00 | 93 | 1013.5 |
| 20260906133440 | 73 | 70 | 5.0 | 8.0 | 0.00 | 0.00 | 0.00 | 94 | 1013.5 |
| 20260906132438 | 73 | 82 | 4.0 | 8.0 | 0.00 | 0.00 | 0.00 | 94 | 1013.5 |
| 20260906131438 | 72 | 74 | 5.0 | 10.0 | 0.00 | 0.00 | 0.00 | 94 | 1013.5 |
| 20260906130437 | 72 | 76 | 4.0 | 8.0 | 0.00 | 0.00 | 0.00 | 94 | 1013.5 |
| 20260906125437 | 72 | 77 | 5.0 | 8.0 | 0.00 | 0.00 | 0.00 | 94 | 1013.5 |
| 20260906124436 | 72 | 84 | 6.0 | 8.0 | 0.00 | 0.00 | 0.00 | 94 | 1013.5 |
| 20260906123436 | 73 | 75 | 5.0 | 7.0 | 0.00 | 0.00 | 0.00 | 94 | 1013.2 |
| 20260906122434 | 73 | 74 | 3.0 | 6.0 | 0.00 | 0.00 | 0.00 | 94 | 1013.5 |
| 20260906121402 | 73 | 75 | 0.0 | 6.0 | 0.00 | 0.00 | 0.00 | 94 | 1013.2 |
| 20260906120401 | 73 | 78 | 4.0 | 7.0 | 0.00 | 0.00 | 0.00 | 94 | 1013.5 |
| 20260906115401 | 73 | 92 | 0.0 | 4.0 | 0.00 | 0.00 | 0.00 | 94 | 1013.2 |
| 20260906114400 | 73 | 92 | 0.0 | 0.0 | 0.00 | 0.00 | 0.00 | 94 | 1013.2 |
| 20260906113400 | 73 | 92 | 0.0 | 1.0 | 0.00 | 0.00 | 0.00 | 94 | 1012.9 |
| 20260906112359 | 73 | 92 | 2.0 | 5.0 | 0.00 | 0.00 | 0.00 | 94 | 1012.5 |
| 20260906111358 | 73 | 92 | 3.0 | 4.0 | 0.00 | 0.00 | 0.00 | 93 | 1012.5 |
| 20260906110358 | 73 | 92 | 0.0 | 6.0 | 0.00 | 0.00 | 0.00 | 93 | 1012.2 |
| 20260906105357 | 74 | 93 | 4.0 | 8.0 | 0.00 | 0.00 | 0.00 | 93 | 1012.2 |
| 20260906104357 | 74 | 91 | 4.0 | 8.0 | 0.00 | 0.00 | 0.00 | 93 | 1012.5 |
| 20260906103356 | 74 | 86 | 0.0 | 5.0 | 0.00 | 0.00 | 0.00 | 93 | 1012.5 |
| 20260906102355 | 74 | 86 | 0.0 | 0.0 | 0.00 | 0.00 | 0.00 | 92 | 1012.2 |
| 20260906101355 | 74 | 86 | 0.0 | 4.0 | 0.00 | 0.00 | 0.00 | 92 | 1012.5 |
| 20260906100323 | 74 | 86 | 0.0 | 6.0 | 0.00 | 0.00 | 0.00 | 93 | 1012.2 |
| 20260906095322 | 74 | 88 | 0.0 | 6.0 | 0.00 | 0.00 | 0.00 | 92 | 1011.9 |
| 20260906094322 | 75 | 88 | 4.0 | 6.0 | 0.00 | 0.00 | 0.00 | 92 | 1011.9 |
| 20260906093321 | 75 | 88 | 0.0 | 0.0 | 0.00 | 0.00 | 0.00 | 92 | 1011.9 |
| 20260906092320 | 75 | 88 | 0.0 | 6.0 | 0.00 | 0.00 | 0.00 | 92 | 1011.9 |
| 20260906091320 | 75 | 88 | 0.0 | 7.0 | 0.00 | 0.00 | 0.00 | 92 | 1011.5 |
| 20260906090217 | 75 | 88 | 0.0 | 5.0 | 0.00 | 0.00 | 0.00 | 91 | 1011.5 |
| 20260906085216 | 76 | 88 | 3.0 | 7.0 | 0.00 | 0.00 | 0.00 | 91 | 1011.2 |
| 20260906084215 | 76 | 90 | 3.0 | 5.0 | 0.00 | 0.00 | 0.00 | 91 | 1011.2 |
| 20260906083214 | 76 | 90 | 3.0 | 8.0 | 0.00 | 0.00 | 0.00 | 91 | 1011.2 |
| 20260906082214 | 76 | 86 | 3.0 | 6.0 | 0.00 | 0.00 | 0.00 | 90 | 1011.2 |
| 20260906081142 | 76 | 86 | 4.0 | 5.0 | 0.00 | 0.00 | 0.00 | 91 | 1011.2 |
| 20260906080141 | 77 | 86 | 2.0 | 6.0 | 0.00 | 0.00 | 0.00 | 91 | 1011.5 |
| 20260906075141 | 77 | 86 | 0.0 | 0.0 | 0.00 | 0.00 | 0.00 | 90 | 1011.5 |
| 20260906074140 | 77 | 86 | 1.0 | 10.0 | 0.00 | 0.00 | 0.00 | 90 | 1011.5 |
| 20260906073140 | 77 | 72 | 5.0 | 10.0 | 0.00 | 0.00 | 0.00 | 90 | 1011.2 |
| 20260906072139 | 77 | 81 | 4.0 | 9.0 | 0.00 | 0.00 | 0.00 | 90 | 1011.2 |
| 20260906071138 | 78 | 78 | 5.0 | 7.0 | 0.00 | 0.00 | 0.00 | 91 | 1011.2 |
| 20260906070137 | 78 | 92 | 5.0 | 10.0 | 0.00 | 0.00 | 0.00 | 91 | 1011.2 |
| 20260906065137 | 78 | 78 | 4.0 | 9.0 | 0.00 | 0.00 | 0.00 | 91 | 1011.2 |
| 20260906064136 | 78 | 80 | 4.0 | 9.0 | 0.00 | 0.00 | 0.00 | 91 | 1011.2 |
| 20260906063104 | 79 | 66 | 4.0 | 10.0 | 0.00 | 0.00 | 0.00 | 91 | 1011.2 |
| 20260906062104 | 79 | 90 | 7.0 | 12.0 | 0.00 | 0.00 | 0.00 | 91 | 1011.2 |
| 20260906061103 | 79 | 96 | 0.0 | 7.0 | 0.00 | 0.00 | 0.00 | 91 | 1011.2 |
| 20260906055102 | 80 | 92 | 2.0 | 8.0 | 0.00 | 0.00 | 0.00 | 91 | 1011.2 |
| 20260906054101 | 80 | 89 | 5.0 | 11.0 | 0.00 | 0.00 | 0.00 | 91 | 1011.2 |
| 20260906053101 | 80 | 95 | 4.0 | 8.0 | 0.00 | 0.00 | 0.00 | 91 | 1010.8 |
| 20260906052028 | 81 | 98 | 4.0 | 10.0 | 0.00 | 0.00 | 0.00 | 91 | 1010.8 |
| 20260906051028 | 81 | 85 | 4.0 | 8.0 | 0.00 | 0.00 | 0.00 | 90 | 1010.8 |
| 20260906050027 | 81 | 83 | 6.0 | 8.0 | 0.00 | 0.00 | 0.00 | 90 | 1010.8 |
| 20260906045026 | 81 | 87 | 2.0 | 9.0 | 0.00 | 0.00 | 0.00 | 89 | 1010.5 |
| 20260906044026 | 82 | 81 | 4.0 | 8.0 | 0.00 | 0.00 | 0.00 | 89 | 1010.5 |
| 20260906043025 | 82 | 87 | 5.0 | 9.0 | 0.00 | 0.00 | 0.00 | 88 | 1010.5 |
| 20260906042024 | 83 | 59 | 5.0 | 8.0 | 0.00 | 0.00 | 0.00 | 87 | 1010.2 |
| 20260906041024 | 83 | 60 | 4.0 | 7.0 | 0.00 | 0.00 | 0.00 | 86 | 1010.2 |
| 20260906040023 | 83 | 68 | 3.0 | 8.0 | 0.00 | 0.00 | 0.00 | 86 | 1010.2 |
| 20260906035021 | 84 | 71 | 4.0 | 6.0 | 0.00 | 0.00 | 0.00 | 85 | 1009.8 |
| 20260906034021 | 84 | 72 | 0.0 | 4.0 | 0.00 | 0.00 | 0.00 | 85 | 1009.8 |
| 20260906033020 | 84 | 72 | 3.0 | 5.0 | 0.00 | 0.00 | 0.00 | 84 | 1009.8 |
| 20260906031917 | 84 | 72 | 4.0 | 5.0 | 0.00 | 0.00 | 0.00 | 84 | 1009.8 |
| 20260906030916 | 84 | 72 | 3.0 | 6.0 | 0.00 | 0.00 | 0.00 | 84 | 1009.8 |
| 20260906025916 | 85 | 72 | 0.0 | 5.0 | 0.00 | 0.00 | 0.00 | 83 | 1009.8 |
| 20260906024914 | 85 | 72 | 4.0 | 6.0 | 0.00 | 0.00 | 0.00 | 83 | 1009.8 |
| 20260906023913 | 85 | 72 | 2.0 | 4.0 | 0.00 | 0.00 | 0.00 | 82 | 1009.8 |
| 20260906022842 | 85 | 73 | 0.0 | 4.0 | 0.00 | 0.00 | 0.00 | 81 | 1009.8 |
| 20260906021809 | 86 | 73 | 1.0 | 7.0 | 0.00 | 0.00 | 0.00 | 80 | 1009.8 |
| 20260906020808 | 86 | 74 | 3.0 | 6.0 | 0.00 | 0.00 | 0.00 | 79 | 1009.5 |
| 20260906015634 | 86 | 71 | 4.0 | 7.0 | 0.00 | 0.00 | 0.00 | 78 | 1009.5 |
| 20260906014634 | 87 | 61 | 2.0 | 6.0 | 0.00 | 0.00 | 0.00 | 77 | 1009.5 |
| 20260906013602 | 87 | 57 | 3.0 | 5.0 | 0.00 | 0.00 | 0.00 | 76 | 1009.1 |
| 20260906012601 | 88 | 57 | 0.0 | 2.0 | 0.00 | 0.00 | 0.00 | 75 | 1009.1 |
| 20260906011601 | 88 | 57 | 0.0 | 0.0 | 0.00 | 0.00 | 0.00 | 74 | 1008.8 |
| 20260906010600 | 89 | 57 | 1.0 | 5.0 | 0.00 | 0.00 | 0.00 | 73 | 1008.8 |
| 20260906005559 | 89 | 57 | 1.0 | 7.0 | 0.00 | 0.00 | 0.00 | 72 | 1008.8 |
| 20260906004559 | 90 | 60 | 4.0 | 6.0 | 0.00 | 0.00 | 0.00 | 70 | 1008.8 |
| 20260906003558 | 90 | 61 | 1.0 | 1.0 | 0.00 | 0.00 | 0.00 | 69 | 1008.8 |
| 20260906002526 | 91 | 61 | 0.0 | 3.0 | 0.00 | 0.00 | 0.00 | 69 | 1008.8 |
| 20260906001525 | 91 | 61 | 4.0 | 5.0 | 0.00 | 0.00 | 0.00 | 68 | 1008.8 |
| 20260906000525 | 91 | 61 | 2.0 | 5.0 | 0.00 | 0.00 | 0.00 | 67 | 1008.8 |
| 20260905235524 | 92 | 61 | 1.0 | 8.0 | 0.00 | 0.00 | 0.00 | 66 | 1008.8 |
| 20260905234523 | 92 | 63 | 3.0 | 6.0 | 0.00 | 0.00 | 0.00 | 66 | 1008.8 |
| 20260905233451 | 92 | 63 | 1.0 | 6.0 | 0.00 | 0.00 | 0.00 | 66 | 1008.8 |
| 20260905232451 | 92 | 63 | 0.0 | 5.0 | 0.00 | 0.00 | 0.00 | 65 | 1008.5 |
| 20260905231450 | 92 | 61 | 3.0 | 7.0 | 0.00 | 0.00 | 0.00 | 64 | 1008.5 |
| 20260905230450 | 93 | 52 | 5.0 | 8.0 | 0.00 | 0.00 | 0.00 | 63 | 1008.5 |
| 20260905225449 | 94 | 48 | 5.0 | 10.0 | 0.00 | 0.00 | 0.00 | 61 | 1008.5 |
| 20260905224448 | 95 | 51 | 6.0 | 12.0 | 0.00 | 0.00 | 0.00 | 59 | 1008.5 |
| 20260905223416 | 97 | 28 | 4.0 | 8.0 | 0.00 | 0.00 | 0.00 | 56 | 1008.1 |
| 20260905222416 | 97 | 54 | 2.0 | 6.0 | 0.00 | 0.00 | 0.00 | 53 | 1008.1 |
| 20260905221415 | 97 | 54 | 4.0 | 7.0 | 0.00 | 0.00 | 0.00 | 54 | 1008.1 |
| 20260905220415 | 97 | 62 | 5.0 | 10.0 | 0.00 | 0.00 | 0.00 | 53 | 1008.1 |
| 20260905215414 | 98 | 29 | 3.0 | 9.0 | 0.00 | 0.00 | 0.00 | 54 | 1008.1 |
| 20260905214412 | 97 | 64 | 3.0 | 10.0 | 0.00 | 0.00 | 0.00 | 54 | 1008.1 |
| 20260905213412 | 97 | 34 | 3.0 | 8.0 | 0.00 | 0.00 | 0.00 | 53 | 1008.5 |
| 20260905212340 | 96 | 68 | 3.0 | 5.0 | 0.00 | 0.00 | 0.00 | 54 | 1008.5 |
| 20260905211308 | 96 | 69 | 2.0 | 5.0 | 0.00 | 0.00 | 0.00 | 56 | 1008.5 |
| 20260905210307 | 96 | 69 | 3.0 | 6.0 | 0.00 | 0.00 | 0.00 | 56 | 1008.5 |
| 20260905205307 | 97 | 69 | 2.0 | 9.0 | 0.00 | 0.00 | 0.00 | 55 | 1008.8 |
| 20260905204234 | 99 | 85 | 6.0 | 10.0 | 0.00 | 0.00 | 0.00 | 52 | 1008.8 |
| 20260905203234 | 100 | 350 | 2.0 | 9.0 | 0.00 | 0.00 | 0.00 | 49 | 1008.8 |
| 20260905202233 | 100 | 290 | 3.0 | 7.0 | 0.00 | 0.00 | 0.00 | 49 | 1009.1 |
| 20260905201232 | 100 | 277 | 4.0 | 9.0 | 0.00 | 0.00 | 0.00 | 49 | 1009.1 |
| 20260905200200 | 99 | 278 | 4.0 | 9.0 | 0.00 | 0.00 | 0.00 | 51 | 1009.1 |
| 20260905195200 | 99 | 290 | 4.0 | 9.0 | 0.00 | 0.00 | 0.00 | 49 | 1009.1 |
| 20260905194159 | 99 | 278 | 5.0 | 9.0 | 0.00 | 0.00 | 0.00 | 50 | 1009.1 |
| 20260905193159 | 99 | 330 | 3.0 | 7.0 | 0.00 | 0.00 | 0.00 | 52 | 1009.5 |
| 20260905192127 | 99 | 315 | 2.0 | 6.0 | 0.00 | 0.00 | 0.00 | 52 | 1009.5 |
| 20260905191126 | 99 | 293 | 3.0 | 6.0 | 0.00 | 0.00 | 0.00 | 51 | 1009.5 |
| 20260905190126 | 99 | 283 | 3.0 | 8.0 | 0.00 | 0.00 | 0.00 | 52 | 1009.5 |
| 20260905185125 | 99 | 260 | 7.0 | 10.0 | 0.00 | 0.00 | 0.00 | 50 | 1009.5 |
| 20260905184125 | 99 | 261 | 0.0 | 6.0 | 0.00 | 0.00 | 0.00 | 50 | 1009.5 |
| 20260905183124 | 99 | 260 | 2.0 | 6.0 | 0.00 | 0.00 | 0.00 | 49 | 1009.5 |
| 20260905182123 | 99 | 258 | 4.0 | 7.0 | 0.00 | 0.00 | 0.00 | 48 | 1009.8 |
| 20260905181123 | 99 | 256 | 2.0 | 5.0 | 0.00 | 0.00 | 0.00 | 48 | 1009.8 |
| 20260905180122 | 99 | 256 | 0.0 | 0.0 | 0.00 | 0.00 | 0.00 | 52 | 1009.8 |
| 20260905175122 | 99 | 256 | 2.0 | 7.0 | 0.00 | 0.00 | 0.00 | 49 | 1009.8 |
| 20260905174121 | 99 | 255 | 6.0 | 9.0 | 0.00 | 0.00 | 0.00 | 48 | 1009.8 |
| 20260905173120 | 100 | 252 | 2.0 | 6.0 | 0.00 | 0.00 | 0.00 | 49 | 1010.2 |
| 20260905172119 | 99 | 252 | 0.0 | 6.0 | 0.00 | 0.00 | 0.00 | 52 | 1010.2 |
| 20260905171047 | 98 | 252 | 1.0 | 5.0 | 0.00 | 0.00 | 0.00 | 53 | 1010.5 |
| 20260905170047 | 98 | 252 | 2.0 | 4.0 | 0.00 | 0.00 | 0.00 | 56 | 1010.5 |
| 20260905165046 | 97 | 252 | 2.0 | 5.0 | 0.00 | 0.00 | 0.00 | 55 | 1010.5 |
| 20260905164014 | 96 | 252 | 2.0 | 5.0 | 0.00 | 0.00 | 0.00 | 58 | 1010.5 |
| 20260905163014 | 96 | 252 | 3.0 | 5.0 | 0.00 | 0.00 | 0.00 | 58 | 1010.5 |
| 20260905162013 | 96 | 252 | 2.0 | 5.0 | 0.00 | 0.00 | 0.00 | 59 | 1010.2 |
| 20260905161012 | 95 | 252 | 0.0 | 4.0 | 0.00 | 0.00 | 0.00 | 61 | 1010.2 |
| 20260905160011 | 94 | 252 | 3.0 | 6.0 | 0.00 | 0.00 | 0.00 | 62 | 1010.2 |
| 20260905155011 | 94 | 252 | 0.0 | 2.0 | 0.00 | 0.00 | 0.00 | 63 | 1010.2 |
| 20260905154010 | 93 | 252 | 1.0 | 2.0 | 0.00 | 0.00 | 0.00 | 63 | 1010.5 |
| 20260905153009 | 92 | 252 | 3.0 | 4.0 | 0.00 | 0.00 | 0.00 | 64 | 1010.2 |
| 20260905151907 | 91 | 252 | 0.0 | 0.0 | 0.00 | 0.00 | 0.00 | 66 | 1010.5 |
| 20260905150906 | 90 | 252 | 0.0 | 4.0 | 0.00 | 0.00 | 0.00 | 68 | 1010.5 |
| 20260905145906 | 89 | 252 | 2.0 | 4.0 | 0.00 | 0.00 | 0.00 | 70 | 1010.5 |
| 20260905144905 | 88 | 252 | 3.0 | 4.0 | 0.00 | 0.00 | 0.00 | 70 | 1010.2 |